Regional Weather Roundup
Issued by NWS

Home | Current Version | Previous Version | Graphics & Text | Print | Product List | Glossary On
Versions: 1 2 3 4 5 6 7 8 9 10 11 12 13 14 15 16 17 18 19 20 21 22 23 24 25 26 27 28 29 30 31 32 33 34 35 36 37 38 39 40 41 42 43 44 45 46 47 48 49 50
000
ASUS43 KBIS 280901
RWRND

NORTH DAKOTA REGIONAL WEATHER ROUNDUP
NATIONAL WEATHER SERVICE BISMARCK ND
300 AM CST WED JAN 28 2015

NOTE: "FAIR" INDICATES FEW OR NO CLOUDS BELOW 12,000 FEET WITH NO
SIGNIFICANT WEATHER AND/OR OBSTRUCTIONS TO VISIBILITY.


NDZ001>003-009>011-017-281000-
NORTHWEST NORTH DAKOTA

CITY           SKY/WX    TMP DP  RH WIND       PRES   REMARKS
WILLISTON      CLOUDY    30  28  92 N3        29.74S
MINOT          MOCLDY    30  27  88 W5        29.74S
MINOT AFB      MOCLDY    29  29 100 N6        29.74F
$$

NDZ018>021-031>035-040>046-281000-
SOUTHWEST NORTH DAKOTA

CITY           SKY/WX    TMP DP  RH WIND       PRES   REMARKS
BISMARCK       CLEAR     29  28  96 CALM      29.75S
DICKINSON      CLEAR     31  26  82 SW5       29.72F
GARRISON         N/A     28  26  92 CALM      29.73S
HETTINGER ARPT CLEAR     28  25  88 W3        29.76F
$$

NDZ004>008-012>016-024-026-027-054-281000-
NORTHEAST NORTH DAKOTA

CITY           SKY/WX    TMP DP  RH WIND       PRES   REMARKS
GRAND FORKS    CLOUDY    34  32  92 S10       29.84F FOG
GRND FRKS AFB  CLOUDY    33  32  97 S13       29.83F FOG
DEVILS LAKE    CLOUDY    32  30  93 SE6       29.76F VSB 1/2
$$

NDZ022-023-025-028>030-036>039-047>053-281000-
SOUTHEAST NORTH DAKOTA

CITY           SKY/WX    TMP DP  RH WIND       PRES   REMARKS
FARGO          CLOUDY    35  31  85 SE20G26   29.84F
JAMESTOWN      FOG       32  32 100 S12       29.76F VSB 1/4
$$



USA.gov is the U.S. government's official web portal to all federal, state and local government web resources and services.